Crest Hill, IL

9:20 PM CST on December 09, 2016 (GMT -0600)
Lewis University

Weather History for KLOT - December, 2013

Change the Weather History Date:

Monday, December 9, 2013

  Actual Average Record
Temperature  
Mean Temperature 12 °F 29 °F  
Max Temperature 24 °F 37 °F 54 °F (1999)
Min Temperature 0 °F 22 °F -4 °F (1995)
Degree Days  
Heating Degree Days 53 36  
Month to date heating degree days 333 307  
Since 1 July heating degree days 1655 1526  
Cooling Degree Days 0 0  
Month to date cooling degree days 0 0  
Year to date cooling degree days 950 862  
Moisture  
Dew Point 10 °F    
Average Humidity 78    
Maximum Humidity 94    
Minimum Humidity 63    
Precipitation  
Precipitation T in 0.07 in 1.03 in (2008)
Month to date precipitation 0.20 0.68  
Year to date precipitation 39.55 38.50  
Snow  
Snow T in 0.30 in 4.10 in (1992)
Month to date snowfall 1.5 2.1  
Since 1 July snowfall 2.4 3.0  
Snow Depth 1.00 in    
Sea Level Pressure  
Sea Level Pressure 30.12 in    
Wind  
Wind Speed 14 mph (West)    
Max Wind Speed 22 mph    
Max Gust Speed 30 mph    
Visibility 8 miles    
Events Snow    
T = Trace of Precipitation, MM = Missing Value Source: NWS Daily Summary

Daily Weather History Graph

Daily Weather History Graph

Search for Another Location

Airport or City:

Trip Planner

Search our weather history database for the weather conditions in past years. The results will help you decide how hot, cold, wet, or windy it might be!

Date:

Astronomy

Dec. 09, 2013 Rise Set
Actual Time 7:07 AM CST 4:22 PM CST
Civil Twilight 6:36 AM CST 4:53 PM CST
Nautical Twilight 6:01 AM CST 5:28 PM CST
Astronomical Twilight 5:27 AM CST 6:01 PM CST
Moon 11:56 AM CST (12/9) No Moon Set
Length of Visible Light 10h 17m
Length of Day
9h 14m
Waxing Crescent, 51% of the Moon is Illuminated
Dec 9
Waxing Crescent
Dec 17
Full
Dec 25
Last Quarter
Jan 1
New
Jan 7
First Quarter

Hourly Weather History & Observations

Time (CST) Temp. Windchill Dew Point Humidity Pressure Visibility Wind Dir Wind Speed Gust Speed Precip Events Conditions
12:15 AM 24.4 °F 13.5 °F 23.0 °F 94% 29.94 in 7.0 mi WSW 11.5 mph - N/A   Overcast
12:35 AM 24.3 °F 13.3 °F 22.6 °F 94% 29.94 in 5.0 mi WSW 11.5 mph - N/A   Overcast
12:55 AM 23.9 °F 11.7 °F 22.5 °F 94% 29.94 in 5.0 mi WSW 13.8 mph - N/A   Overcast
1:15 AM 23.9 °F 11.2 °F 22.3 °F 94% 29.94 in 7.0 mi West 15.0 mph - N/A   Overcast
1:35 AM 23.9 °F 12.3 °F 22.1 °F 93% 29.95 in 7.0 mi West 12.7 mph 20.7 mph N/A   Overcast
1:55 AM 23.7 °F 12.1 °F 21.9 °F 93% 29.95 in 7.0 mi West 12.7 mph 19.6 mph N/A   Overcast
2:15 AM 23.5 °F 10.8 °F 21.6 °F 92% 29.96 in 7.0 mi West 15.0 mph - N/A   Overcast
2:35 AM 23.2 °F 10.3 °F 21.2 °F 92% 29.96 in 5.0 mi West 15.0 mph 23.0 mph N/A   Overcast
2:55 AM 23.0 °F 10.6 °F 21.0 °F 92% 29.97 in 7.0 mi West 13.8 mph - N/A   Overcast
3:15 AM 23.0 °F 11.1 °F 20.7 °F 91% 29.97 in 7.0 mi West 12.7 mph - N/A   Overcast
3:35 AM 22.8 °F 10.9 °F 20.3 °F 90% 29.97 in 5.0 mi West 12.7 mph - N/A   Overcast
3:55 AM 22.8 °F 10.9 °F 20.3 °F 90% 29.97 in 7.0 mi West 12.7 mph 19.6 mph N/A   Overcast
4:15 AM 22.6 °F 10.1 °F 19.8 °F 89% 29.99 in 7.0 mi West 13.8 mph - N/A Snow Light Snow
4:35 AM 22.6 °F 9.6 °F 19.4 °F 87% 30.00 in 7.0 mi West 15.0 mph 23.0 mph N/A Snow Light Snow
4:55 AM 22.5 °F 9.4 °F 19.4 °F 88% 30.00 in 7.0 mi West 15.0 mph 19.6 mph N/A Snow Light Snow
5:15 AM 22.1 °F 8.5 °F 18.3 °F 85% 30.01 in 7.0 mi West 16.1 mph 24.2 mph N/A Snow Light Snow
5:35 AM 21.6 °F 8.8 °F 17.6 °F 85% 30.01 in 7.0 mi West 13.8 mph 19.6 mph N/A Snow Light Snow
5:55 AM 21.2 °F 7.3 °F 17.4 °F 85% 30.01 in 7.0 mi West 16.1 mph - N/A Snow Light Snow
6:15 AM 21.0 °F 6.6 °F 16.7 °F 83% 30.03 in 7.0 mi West 17.3 mph 20.7 mph N/A   Overcast
6:35 AM 20.1 °F 5.9 °F 16.0 °F 84% 30.03 in 7.0 mi West 16.1 mph 21.9 mph N/A   Overcast
6:55 AM 19.2 °F 5.3 °F 15.4 °F 85% 30.04 in 7.0 mi West 15.0 mph - N/A Snow Light Snow
7:15 AM 19.2 °F 4.3 °F 15.4 °F 85% 30.06 in 7.0 mi West 17.3 mph 24.2 mph N/A   Overcast
7:35 AM 19.0 °F 4.0 °F 15.3 °F 85% 30.07 in 7.0 mi West 17.3 mph - N/A   Overcast
7:55 AM 19.0 °F 5.0 °F 14.9 °F 84% 30.09 in 5.0 mi West 15.0 mph 23.0 mph N/A Snow Light Snow
8:15 AM 19.0 °F 4.0 °F 14.9 °F 84% 30.09 in 5.0 mi West 17.3 mph 20.7 mph N/A   Overcast
8:35 AM 19.0 °F 4.0 °F 14.5 °F 83% 30.09 in 4.0 mi WNW 17.3 mph 20.7 mph N/A Snow Light Snow
8:55 AM 18.9 °F 4.3 °F 13.8 °F 81% 30.10 in 4.0 mi WNW 16.1 mph - N/A Snow Light Snow
9:15 AM 18.5 °F 3.3 °F 13.1 °F 79% 30.09 in 7.0 mi WNW 17.3 mph - N/A Snow Light Snow
9:35 AM 19.0 °F 5.0 °F 14.0 °F 81% 30.09 in 5.0 mi West 15.0 mph - N/A Snow Light Snow
9:55 AM 18.7 °F 4.6 °F 13.8 °F 81% 30.10 in 7.0 mi West 15.0 mph - N/A   Overcast
10:15 AM 18.5 °F 3.8 °F 13.6 °F 81% 30.10 in 7.0 mi West 16.1 mph - N/A   Overcast
10:35 AM 18.5 °F 5.5 °F 13.1 °F 79% 30.12 in 7.0 mi West 12.7 mph - N/A   Overcast
10:55 AM 18.3 °F 2.2 °F 12.7 °F 79% 30.12 in 7.0 mi West 19.6 mph - N/A   Mostly Cloudy
11:15 AM 18.5 °F 2.4 °F 12.7 °F 78% 30.12 in 7.0 mi West 19.6 mph 24.2 mph N/A   Scattered Clouds
11:35 AM 18.1 °F 1.6 °F 11.8 °F 76% 30.13 in 7.0 mi West 20.7 mph - N/A   Mostly Cloudy
11:55 AM 17.8 °F 2.4 °F 11.3 °F 76% 30.14 in 7.0 mi West 17.3 mph - N/A   Mostly Cloudy
12:15 PM 18.5 °F 2.9 °F 10.8 °F 72% 30.14 in 10.0 mi WSW 18.4 mph 23.0 mph N/A   Scattered Clouds
12:35 PM 18.5 °F 2.4 °F 10.9 °F 72% 30.14 in 10.0 mi WSW 19.6 mph 25.3 mph N/A   Clear
12:55 PM 18.1 °F 3.4 °F 10.2 °F 71% 30.14 in 10.0 mi WSW 16.1 mph 25.3 mph N/A   Scattered Clouds
1:15 PM 18.1 °F 1.6 °F 9.9 °F 70% 30.15 in 10.0 mi WSW 20.7 mph 26.5 mph N/A   Scattered Clouds
1:35 PM 18.1 °F 1.2 °F 9.5 °F 69% 30.16 in 10.0 mi West 21.9 mph 26.5 mph N/A   Scattered Clouds
1:55 PM 17.8 °F 0.7 °F 8.6 °F 67% 30.16 in 10.0 mi West 21.9 mph 29.9 mph N/A   Scattered Clouds
2:15 PM 17.4 °F 0.2 °F 8.6 °F 68% 30.16 in 10.0 mi West 21.9 mph 27.6 mph N/A   Clear
2:35 PM 16.9 °F 1.2 °F 8.6 °F 70% 30.17 in 10.0 mi West 17.3 mph 25.3 mph N/A   Clear
2:55 PM 16.7 °F 0.1 °F 8.6 °F 70% 30.18 in 10.0 mi West 19.6 mph 23.0 mph N/A   Clear
3:15 PM 16.3 °F 0.1 °F 8.6 °F 72% 30.19 in 10.0 mi West 18.4 mph 21.9 mph N/A   Clear
3:35 PM 15.4 °F -2.4 °F 6.8 °F 69% 30.19 in 10.0 mi West 21.9 mph 26.5 mph N/A   Clear
3:55 PM 14.7 °F -2.9 °F 6.8 °F 71% 30.18 in 10.0 mi West 20.7 mph 26.5 mph N/A   Clear
4:15 PM 14.4 °F -1.5 °F 7.7 °F 75% 30.19 in 10.0 mi West 16.1 mph 24.2 mph N/A   Clear
4:35 PM 14.0 °F -3.4 °F 6.6 °F 72% 30.18 in 10.0 mi West 19.6 mph 26.5 mph N/A   Clear
4:55 PM 13.3 °F -2.4 °F 6.1 °F 73% 30.19 in 10.0 mi West 15.0 mph - N/A   Clear
5:15 PM 13.1 °F -2.6 °F 5.9 °F 73% 30.19 in 10.0 mi WNW 15.0 mph 19.6 mph N/A   Clear
5:35 PM 12.4 °F -4.6 °F 4.1 °F 69% 30.19 in 10.0 mi West 17.3 mph - N/A   Clear
5:55 PM 11.3 °F -7.0 °F 1.2 °F 64% 30.21 in 10.0 mi West 19.6 mph 25.3 mph N/A   Clear
6:15 PM 10.2 °F -7.4 °F 0.5 °F 65% 30.22 in 10.0 mi West 17.3 mph - N/A   Clear
6:35 PM 9.1 °F -7.7 °F -1.1 °F 63% 30.23 in 10.0 mi West 15.0 mph 20.7 mph N/A   Clear
6:55 PM 8.4 °F -7.9 °F -1.5 °F 64% 30.24 in 10.0 mi West 13.8 mph - N/A   Clear
7:15 PM 7.7 °F -8.2 °F -0.9 °F 68% 30.24 in 10.0 mi West 12.7 mph - N/A   Clear
7:35 PM 6.8 °F -8.6 °F -1.7 °F 68% 30.24 in 10.0 mi West 11.5 mph - N/A   Clear
7:55 PM 6.4 °F -9.0 °F -1.8 °F 69% 30.24 in 10.0 mi West 11.5 mph - N/A   Clear
8:15 PM 5.9 °F -10.5 °F -2.2 °F 69% 30.23 in 10.0 mi West 12.7 mph - N/A   Clear
8:35 PM 5.4 °F -10.4 °F -3.1 °F 68% 30.24 in 10.0 mi West 11.5 mph - N/A   Clear
8:55 PM 4.5 °F -11.5 °F -4.0 °F 68% 30.23 in 10.0 mi West 11.5 mph - N/A   Clear
9:15 PM 3.2 °F -11.3 °F -4.2 °F 71% 30.23 in 10.0 mi West 9.2 mph - N/A   Clear
9:35 PM 2.8 °F -8.2 °F -4.5 °F 71% 30.23 in 10.0 mi West 5.8 mph - N/A   Clear
9:55 PM 2.1 °F -11.6 °F -4.7 °F 73% 30.22 in 10.0 mi West 8.1 mph - N/A   Clear
10:15 PM 1.6 °F -12.2 °F -5.1 °F 74% 30.22 in 10.0 mi West 8.1 mph - N/A   Clear
10:35 PM 1.0 °F -14.0 °F -5.3 °F 75% 30.23 in 10.0 mi West 9.2 mph - N/A   Clear
10:55 PM 1.4 °F -11.3 °F -5.3 °F 74% 30.23 in 10.0 mi West 6.9 mph - N/A   Clear
11:15 PM 1.4 °F -9.9 °F -5.1 °F 74% 30.23 in 10.0 mi West 5.8 mph - N/A   Clear
11:35 PM 0.7 °F -12.1 °F -5.8 °F 74% 30.23 in 10.0 mi WSW 6.9 mph - N/A   Clear
11:55 PM -0.0 °F -11.6 °F -6.3 °F 75% 30.22 in 10.0 mi WSW 5.8 mph - N/A   Clear